N869KN MYEN-MYZ2

Flight info

Callsign N869KN
Flight time N/A
Altitude 3500
Route DCT
Aircraft EC45/L-SDE2E3FGHRWXYZ/L

Departure

Time 2026-04-15 17:00
Airport Normans Cay Airport (MYEN)

Arrival

Time N/A
Airport MYZ2
Time Latitude Longitude Altitude Speed Heading
2026-04-15 16:59 24.65726 -76.65418 1519 ft 79 kts 64°
2026-04-15 17:00 24.65927 -76.64866 1517 ft 77 kts 64°
2026-04-15 17:00 24.66124 -76.64321 1517 ft 76 kts 63°
2026-04-15 17:00 24.66318 -76.63784 1521 ft 75 kts 63°
2026-04-15 17:00 24.66512 -76.63246 1522 ft 78 kts 63°
2026-04-15 17:01 24.66714 -76.62691 1518 ft 79 kts 65°
2026-04-15 17:01 24.66922 -76.62114 1515 ft 81 kts 65°
2026-04-15 17:01 24.67125 -76.61550 1518 ft 80 kts 65°
2026-04-15 17:01 24.67331 -76.60986 1524 ft 79 kts 65°
2026-04-15 17:02 24.67533 -76.60433 1524 ft 77 kts 63°
2026-04-15 17:02 24.67735 -76.59880 1520 ft 79 kts 63°
2026-04-15 17:02 24.67940 -76.59322 1524 ft 79 kts 62°
2026-04-15 17:02 24.68145 -76.58762 1518 ft 79 kts 63°
2026-04-15 17:03 24.68350 -76.58200 1521 ft 79 kts 64°
2026-04-15 17:03 24.68554 -76.57643 1524 ft 78 kts 64°
2026-04-15 17:03 24.68754 -76.57093 1518 ft 77 kts 64°
2026-04-15 17:03 24.68954 -76.56548 1521 ft 76 kts 64°
2026-04-15 17:04 24.69151 -76.55999 1660 ft 78 kts 65°
2026-04-15 17:04 24.69355 -76.55441 1764 ft 79 kts 66°
2026-04-15 17:04 24.69560 -76.54878 1860 ft 80 kts 66°
2026-04-15 17:04 24.69769 -76.54308 1923 ft 80 kts 63°
2026-04-15 17:05 24.69980 -76.53738 1974 ft 81 kts 64°
2026-04-15 17:05 24.70190 -76.53165 2024 ft 81 kts 65°
2026-04-15 17:05 24.70402 -76.52585 2076 ft 82 kts 67°
2026-04-15 17:05 24.70615 -76.52004 2127 ft 82 kts 66°
2026-04-15 17:06 24.70826 -76.51424 2178 ft 82 kts 66°
2026-04-15 17:06 24.71039 -76.50841 2222 ft 82 kts 65°
2026-04-15 17:06 24.71253 -76.50255 2275 ft 83 kts 66°
2026-04-15 17:06 24.71470 -76.49660 2312 ft 84 kts 66°
2026-04-15 17:07 24.71691 -76.49055 2370 ft 86 kts 65°
2026-04-15 17:07 24.71912 -76.48450 2421 ft 87 kts 65°
2026-04-15 17:07 24.72138 -76.47832 2467 ft 88 kts 65°
2026-04-15 17:07 24.72367 -76.47205 2518 ft 89 kts 65°
2026-04-15 17:08 24.72596 -76.46573 2567 ft 89 kts 66°
2026-04-15 17:08 24.72829 -76.45938 2616 ft 90 kts 64°
2026-04-15 17:08 24.73062 -76.45298 2667 ft 90 kts 64°
2026-04-15 17:08 24.73295 -76.44659 2721 ft 90 kts 64°
2026-04-15 17:09 24.73373 -76.44444 2736 ft 90 kts 65°